K5HAS Weather Reports


Display with metric or nautical units.
time (UTC)temp
F
wind
direction
speed
MPH
gust
MPH
rain 1hr
in
rain 24hr
in
rain mn
in
humidity
%
barometer
mb
20260510193130 89 141 9.0 17.0 0.00 0.00 0.00 76 1010.3
20260510192629 89 90 8.0 15.0 0.00 0.00 0.00 76 1010.4
20260510192130 89 170 8.0 14.0 0.00 0.00 0.00 76 1010.4
20260510191629 88 90 9.0 14.0 0.00 0.00 0.00 76 1010.4
20260510191128 88 90 9.0 14.0 0.00 0.00 0.00 76 1010.4
20260510190852 88 101 9.0 14.0 0.00 0.00 0.00 76 1010.4
20260510190129 89 90 9.0 13.0 0.00 0.00 0.00 77 1010.4
20260510185629 88 102 8.0 13.0 0.00 0.00 0.00 77 1010.5
20260510185128 88 116 8.0 13.0 0.00 0.00 0.00 78 1010.5
20260510184627 88 120 8.0 13.0 0.00 0.00 0.00 78 1010.5
20260510184121 88 85 7.0 11.0 0.00 0.00 0.00 78 1010.6
20260510183612 88 28 6.0 11.0 0.00 0.00 0.00 79 1010.6
20260510183109 87 65 6.0 13.0 0.00 0.00 0.00 79 1010.6
20260510182555 87 52 6.0 13.0 0.00 0.00 0.00 79 1010.8
20260510182310 87 53 6.0 13.0 0.00 0.00 0.00 80 1010.8
20260510181535 87 66 6.0 13.0 0.00 0.00 0.00 80 1010.8
20260510181025 87 90 5.0 12.0 0.00 0.00 0.00 80 1010.9
20260510180530 87 51 5.0 12.0 0.00 0.00 0.00 81 1010.9
20260510180009 87 90 6.0 12.0 0.00 0.00 0.00 81 1010.9
20260510175722 86 63 5.0 12.0 0.00 0.00 0.00 81 1011.4
20260510174446 86 85 6.0 12.0 0.00 0.00 0.00 81 1011.6
20260510173939 86 77 7.0 12.0 0.00 0.00 0.00 82 1011.6
20260510173442 85 90 8.0 13.0 0.00 0.00 0.00 82 1011.6
20260510173210 85 101 9.0 13.0 0.00 0.00 0.00 82 1011.9
20260510172442 85 137 7.0 12.0 0.00 0.00 0.00 83 1011.9
20260510171939 85 104 6.0 10.0 0.00 0.00 0.00 83 1011.9
20260510171451 85 61 6.0 10.0 0.00 0.00 0.00 83 1012.0
20260510170937 85 72 5.0 10.0 0.00 0.00 0.00 83 1012.0
20260510170438 84 55 8.0 0.0 0.00 0.00 0.00 84 1012.1
20260510165954 84 81 7.0 12.0 0.00 0.00 0.00 84 1012.1
20260510165452 83 78 8.0 12.0 0.00 0.00 0.00 84 1012.1
20260510164954 83 90 7.0 11.0 0.00 0.00 0.00 84 1012.1
20260510164715 83 95 5.0 11.0 0.00 0.00 0.00 85 1012.0
20260510163949 83 90 4.0 10.0 0.00 0.00 0.00 85 1012.0
20260510163442 83 52 4.0 7.0 0.00 0.00 0.00 85 1012.0
20260510162944 83 71 5.0 8.0 0.00 0.00 0.00 85 1011.9
20260510162704 83 70 5.0 9.0 0.00 0.00 0.00 86 1011.9
20260510161944 83 37 5.0 9.0 0.00 0.00 0.00 86 1011.9
20260510161702 82 76 5.0 10.0 0.00 0.00 0.00 86 1012.2
20260510160943 82 85 4.0 10.0 0.00 0.00 0.00 86 1012.2
20260510160442 82 55 4.0 9.0 0.00 0.00 0.00 86 1012.2
20260510155939 82 103 5.0 9.0 0.00 0.00 0.00 86 1012.2
20260510155441 81 108 5.0 8.0 0.00 0.00 0.00 87 1012.2
20260510154931 81 127 4.0 8.0 0.00 0.00 0.00 87 1012.2
20260510154431 81 78 3.0 6.0 0.00 0.00 0.00 87 1012.2
20260510153929 81 75 4.0 9.0 0.00 0.00 0.00 87 1012.2
20260510153427 80 85 4.0 9.0 0.00 0.00 0.00 87 1012.2
20260510152929 80 54 4.0 9.0 0.00 0.00 0.00 88 1012.2
20260510152432 80 75 4.0 9.0 0.00 0.00 0.00 88 1012.2
20260510151925 80 66 4.0 7.0 0.00 0.00 0.00 88 1012.2
20260510151425 80 38 4.0 7.0 0.00 0.00 0.00 88 1012.2
20260510150927 80 49 4.0 8.0 0.00 0.00 0.00 88 1012.2
20260510150428 79 80 4.0 8.0 0.00 0.00 0.00 88 1012.2
20260510145925 79 95 3.0 7.0 0.00 0.00 0.00 88 1011.9
20260510145427 79 95 3.0 7.0 0.00 0.00 0.00 88 1011.9
20260510144926 78 103 5.0 8.0 0.00 0.00 0.00 88 1011.9
20260510144635 78 116 5.0 8.0 0.00 0.00 0.00 88 1011.8
20260510143908 78 90 5.0 8.0 0.00 0.00 0.00 88 1011.8
20260510143355 78 90 6.0 9.0 0.00 0.00 0.00 88 1011.8
20260510142844 78 109 6.0 9.0 0.00 0.00 0.00 88 1011.7
20260510142559 78 122 5.0 9.0 0.00 0.00 0.00 88 1011.7
20260510141828 78 120 6.0 9.0 0.00 0.00 0.00 88 1011.7
20260510141318 78 122 6.0 9.0 0.00 0.00 0.00 88 1011.4
20260510141036 78 103 6.0 11.0 0.00 0.00 0.00 88 1011.4
20260510140306 78 110 6.0 11.0 0.00 0.00 0.00 88 1011.4
20260510140011 78 101 6.0 9.0 0.00 0.00 0.00 88 1010.8
20260510135246 78 104 6.0 9.0 0.00 0.00 0.00 88 1010.8
20260510135001 77 119 6.0 9.0 0.00 0.00 0.00 88 1010.8
20260510134231 77 135 5.0 9.0 0.00 0.00 0.00 88 1010.8
20260510133721 77 101 4.0 7.0 0.00 0.00 0.00 88 1010.8
20260510133217 76 130 5.0 9.0 0.00 0.00 0.00 88 1010.8
20260510132712 76 120 4.0 9.0 0.00 0.00 0.00 88 1010.3
20260510132213 75 114 4.0 6.0 0.00 0.00 0.00 88 1010.3
20260510131714 75 115 3.0 6.0 0.00 0.00 0.00 88 1010.3
20260510131214 74 99 3.0 6.0 0.00 0.00 0.00 88 1010.1
20260510130712 74 113 4.0 6.0 0.00 0.00 0.00 88 1010.1
20260510130213 74 107 4.0 6.0 0.00 0.00 0.00 87 1010.1
20260510125713 73 111 3.0 5.0 0.00 0.00 0.00 88 1009.9
20260510125214 73 104 2.0 5.0 0.00 0.00 0.00 88 1009.9
20260510124714 73 105 1.0 4.0 0.00 0.00 0.00 87 1009.9
20260510124210 73 105 0.0 4.0 0.00 0.00 0.00 87 1009.8
20260510123658 73 105 1.0 5.0 0.00 0.00 0.00 87 1009.8
20260510123152 72 105 2.0 5.0 0.00 0.00 0.00 87 1009.8
20260510122652 72 105 3.0 5.0 0.00 0.00 0.00 87 1009.8
20260510122152 72 106 3.0 5.0 0.00 0.00 0.00 87 1009.8
20260510121652 72 110 1.0 4.0 0.00 0.00 0.00 87 1009.8
20260510121154 71 103 0.0 0.0 0.00 0.00 0.00 87 1009.5
20260510120649 71 90 0.0 0.0 0.00 0.00 0.00 87 1009.5
20260510120150 71 85 0.0 0.0 0.00 0.00 0.00 87 1009.5
20260510115644 71 85 0.0 0.0 0.00 0.00 0.00 87 1009.3
20260510115138 71 85 0.0 0.0 0.00 0.00 0.00 87 1009.3
20260510114118 71 85 0.0 0.0 0.00 0.00 0.00 87 1009.1
20260510113617 71 90 0.0 0.0 0.00 0.00 0.00 87 1009.1
20260510113116 71 90 0.0 0.0 0.00 0.00 0.00 86 1009.1
20260510112614 71 90 0.0 0.0 0.00 0.00 0.00 86 1009.0
20260510112111 71 81 0.0 0.0 0.00 0.00 0.00 86 1009.0
20260510111609 71 81 0.0 0.0 0.00 0.00 0.00 86 1009.0
20260510111109 71 85 0.0 0.0 0.00 0.00 0.00 86 1009.1
20260510110610 71 72 0.0 0.0 0.00 0.00 0.00 86 1009.1
20260510110106 71 71 0.0 0.0 0.00 0.00 0.00 86 1009.1
20260510105606 71 64 0.0 0.0 0.00 0.00 0.00 86 1009.1
20260510105108 70 64 0.0 4.0 0.00 0.00 0.00 86 1009.1
20260510104605 70 53 0.0 4.0 0.00 0.00 0.00 86 1009.1
20260510104104 70 53 1.0 4.0 0.00 0.00 0.00 86 1008.8
20260510103557 70 53 2.0 5.0 0.00 0.00 0.00 86 1008.8
20260510103051 70 55 3.0 6.0 0.00 0.00 0.00 86 1008.8
20260510102804 70 46 3.0 6.0 0.00 0.00 0.00 85 1008.8
20260510102027 69 52 3.0 5.0 0.00 0.00 0.00 85 1008.8
20260510101522 70 53 1.0 5.0 0.00 0.00 0.00 85 1008.8
20260510101011 70 47 0.0 3.0 0.00 0.00 0.00 85 1008.7
20260510100732 70 26 2.0 6.0 0.00 0.00 0.00 85 1008.7
20260510095958 70 24 3.0 6.0 0.00 0.00 0.00 85 1008.7
20260510095456 70 36 1.0 6.0 0.00 0.00 0.00 85 1008.8
20260510094954 70 85 0.0 0.0 0.00 0.00 0.00 85 1008.8
20260510094719 70 85 0.0 0.0 0.00 0.00 0.00 85 1008.8
20260510093954 70 85 0.0 3.0 0.00 0.00 0.00 85 1008.8
20260510093450 70 85 0.0 3.0 0.00 0.00 0.00 85 1008.8
20260510092950 70 85 1.0 3.0 0.00 0.00 0.00 85 1008.8
20260510092451 71 85 2.0 4.0 0.00 0.00 0.00 85 1008.9
20260510091950 71 85 1.0 4.0 0.00 0.00 0.00 85 1008.9
20260510091451 71 141 1.0 4.0 0.00 0.00 0.00 85 1008.9
20260510090945 71 141 2.0 4.0 0.00 0.00 0.00 85 1008.9
20260510090439 71 146 2.0 4.0 0.00 0.00 0.00 85 1008.9
20260510085934 71 128 3.0 5.0 0.00 0.00 0.00 84 1008.9
20260510085648 71 132 3.0 6.0 0.00 0.00 0.00 84 1008.9
20260510084914 71 130 3.0 7.0 0.00 0.00 0.00 84 1008.9
20260510084359 71 147 3.0 7.0 0.00 0.00 0.00 84 1009.1
20260510083847 71 136 3.0 6.0 0.00 0.00 0.00 84 1009.1
20260510083331 71 138 3.0 6.0 0.00 0.00 0.00 84 1009.1
20260510082820 71 141 3.0 6.0 0.00 0.00 0.00 84 1009.2
20260510082307 71 134 4.0 6.0 0.00 0.00 0.00 84 1009.2
20260510081751 71 124 4.0 5.0 0.00 0.00 0.00 84 1009.2
20260510081242 71 119 3.0 5.0 0.00 0.00 0.00 84 1009.2
20260510080743 71 127 3.0 5.0 0.00 0.00 0.00 84 1009.2
20260510080243 71 132 3.0 5.0 0.00 0.00 0.00 84 1009.2
20260510075743 71 122 3.0 5.0 0.00 0.00 0.00 84 1009.1
20260510075244 71 117 3.0 5.0 0.00 0.00 0.00 84 1009.1
20260510074744 71 132 2.0 5.0 0.00 0.00 0.00 83 1009.1
20260510074505 71 136 3.0 5.0 0.00 0.00 0.00 83 1009.1
20260510073737 71 124 3.0 5.0 0.00 0.00 0.00 83 1009.1
20260510073227 71 130 3.0 5.0 0.00 0.00 0.00 83 1009.1
20260510072721 71 128 3.0 4.0 0.00 0.00 0.00 83 1009.1
20260510072213 71 130 3.0 5.0 0.00 0.00 0.00 83 1009.1
20260510071707 71 134 3.0 5.0 0.00 0.00 0.00 83 1009.1
20260510071152 71 139 3.0 5.0 0.00 0.00 0.00 83 1009.1
20260510070650 71 145 3.0 5.0 0.00 0.00 0.00 83 1009.1
20260510070151 72 151 4.0 5.0 0.00 0.00 0.00 83 1009.1
20260510065649 72 148 4.0 7.0 0.00 0.00 0.00 83 1009.1
20260510065146 72 159 4.0 7.0 0.00 0.00 0.00 83 1009.1
20260510064643 72 157 4.0 7.0 0.00 0.00 0.00 83 1009.1
20260510064143 73 144 4.0 7.0 0.00 0.00 0.00 82 1009.4
20260510063642 73 128 5.0 7.0 0.00 0.00 0.00 82 1009.4
20260510063143 73 115 5.0 7.0 0.00 0.00 0.00 82 1009.4
20260510062643 73 110 5.0 7.0 0.00 0.00 0.00 82 1009.7
20260510062142 73 127 5.0 7.0 0.00 0.00 0.00 82 1009.7
20260510061643 73 90 4.0 7.0 0.00 0.00 0.00 82 1009.7
20260510061143 73 114 5.0 7.0 0.00 0.00 0.00 82 1009.8
20260510060629 73 85 5.0 8.0 0.00 0.00 0.00 82 1009.8
20260510060123 73 90 4.0 9.0 0.00 0.00 0.00 81 1009.8
20260510055613 73 78 4.0 9.0 0.00 0.00 0.00 81 1009.8
20260510055326 73 85 5.0 9.0 0.00 0.00 0.00 81 1009.8
20260510054101 73 95 6.0 9.0 0.00 0.00 0.00 80 1009.8
20260510053558 72 79 5.0 9.0 0.00 0.00 0.00 80 1009.8
20260510053321 72 78 4.0 7.0 0.00 0.00 0.00 80 1009.8
20260510052556 72 74 4.0 7.0 0.00 0.00 0.00 80 1009.7
20260510052055 73 60 4.0 7.0 0.00 0.00 0.00 79 1009.7
20260510051555 73 74 4.0 7.0 0.00 0.00 0.00 79 1009.7
20260510051055 73 73 3.0 6.0 0.00 0.00 0.00 79 1009.3
20260510050557 73 85 3.0 6.0 0.00 0.00 0.00 79 1009.3
20260510050055 73 101 4.0 6.0 0.00 0.00 0.00 79 1009.3
20260510045557 73 95 3.0 6.0 0.00 0.00 0.00 79 1009.2
20260510045054 73 118 3.0 6.0 0.00 0.00 0.00 78 1009.2
20260510044554 73 124 4.0 6.0 0.00 0.00 0.00 78 1009.2
20260510044053 73 117 5.0 9.0 0.00 0.00 0.00 78 1009.3
20260510043553 74 114 5.0 9.0 0.00 0.00 0.00 78 1009.3
20260510043049 74 111 5.0 9.0 0.00 0.00 0.00 78 1009.3
20260510042550 74 103 5.0 9.0 0.00 0.00 0.00 77 1009.3
20260510042048 74 90 5.0 8.0 0.00 0.00 0.00 77 1009.3
20260510041815 74 101 4.0 8.0 0.00 0.00 0.00 77 1009.3
20260510041117 74 66 3.0 7.0 0.00 0.00 0.00 77 1008.8
20260510040548 74 100 3.0 9.0 0.00 0.00 0.00 76 1008.8
20260510040038 74 110 4.0 9.0 0.00 0.00 0.00 76 1008.8
20260510035532 74 128 5.0 9.0 0.00 0.00 0.00 76 1008.1
20260510035022 74 160 5.0 9.0 0.00 0.00 0.00 76 1008.1
20260510034511 74 90 4.0 9.0 0.00 0.00 0.00 76 1008.1
20260510034002 74 165 4.0 8.0 0.00 0.00 0.00 75 1008.2
20260510033455 74 90 4.0 9.0 0.00 0.00 0.00 75 1008.2
20260510032941 75 166 4.0 9.0 0.00 0.00 0.00 75 1007.9
20260510032436 75 171 6.0 9.0 0.00 0.00 0.00 74 1007.9
20260510031925 75 168 7.0 9.0 0.00 0.00 0.00 74 1007.9
20260510031415 75 90 7.0 9.0 0.00 0.00 0.00 74 1007.9
20260510031138 76 164 7.0 9.0 0.00 0.00 0.00 74 1007.9
20260510030352 76 156 6.0 9.0 0.00 0.00 0.00 73 1007.9
20260510025842 76 154 5.0 9.0 0.00 0.00 0.00 73 1007.7
20260510025336 76 134 4.0 7.0 0.00 0.00 0.00 73 1007.7
20260510024825 77 141 4.0 7.0 0.00 0.00 0.00 72 1007.7
20260510024316 77 126 4.0 6.0 0.00 0.00 0.00 72 1007.7
20260510023303 78 122 5.0 7.0 0.00 0.00 0.00 72 1007.7
20260510022754 78 143 5.0 7.0 0.00 0.00 0.00 72 1007.5
20260510022240 78 157 3.0 7.0 0.00 0.00 0.00 71 1007.5
20260510021729 79 125 3.0 5.0 0.00 0.00 0.00 71 1007.5
20260510021218 79 103 3.0 5.0 0.00 0.00 0.00 71 1007.3
20260510020708 80 90 3.0 5.0 0.00 0.00 0.00 71 1007.3
20260510015643 80 95 3.0 5.0 0.00 0.00 0.00 70 1006.8
20260510015130 80 90 3.0 5.0 0.00 0.00 0.00 70 1006.8
20260510014618 80 162 4.0 15.0 0.00 0.00 0.00 70 1006.8
20260510014119 80 163 6.0 15.0 0.00 0.00 0.00 70 1006.1
20260510013615 81 165 7.0 15.0 0.00 0.00 0.00 69 1006.1
20260510013119 81 90 8.0 15.0 0.00 0.00 0.00 69 1006.1
20260510012617 81 90 8.0 14.0 0.00 0.00 0.00 69 1005.8
20260510012119 82 168 9.0 14.0 0.00 0.00 0.00 68 1005.8
20260510011616 82 195 9.0 16.0 0.00 0.00 0.00 68 1005.8
20260510011120 83 90 9.0 16.0 0.00 0.00 0.00 68 1005.9
20260510010615 84 90 8.0 12.0 0.00 0.00 0.00 67 1005.9
20260510010118 84 151 8.0 12.0 0.00 0.00 0.00 67 1005.9
20260510005613 85 163 8.0 12.0 0.00 0.00 0.00 66 1006.1
20260510005114 85 160 8.0 12.0 0.00 0.00 0.00 66 1006.1
20260510004609 86 166 7.0 11.0 0.00 0.00 0.00 66 1006.1
20260510004111 86 162 6.0 10.0 0.00 0.00 0.00 65 1006.1
20260510003609 87 170 6.0 10.0 0.00 0.00 0.00 65 1006.1
20260510003112 87 163 6.0 10.0 0.00 0.00 0.00 65 1006.1
20260510002609 87 159 7.0 11.0 0.00 0.00 0.00 65 1006.1
20260510002111 87 168 7.0 12.0 0.00 0.00 0.00 64 1006.1
20260510001609 88 90 7.0 12.0 0.00 0.00 0.00 64 1006.1
20260510001059 88 161 8.0 13.0 0.00 0.00 0.00 64 1005.9
20260510000550 88 161 8.0 13.0 0.00 0.00 0.00 64 1005.9
20260510000044 88 168 9.0 13.0 0.00 0.00 0.00 64 1005.9
20260509235743 89 161 8.0 12.0 0.00 0.00 0.00 63 1006.0
20260509235019 89 155 8.0 14.0 0.00 0.00 0.00 63 1006.0
20260509234517 89 168 8.0 14.0 0.00 0.00 0.00 63 1006.0
20260509234017 90 156 8.0 13.0 0.00 0.00 0.00 63 1006.0
20260509233018 91 139 8.0 13.0 0.00 0.00 0.00 63 1006.0
20260509232517 91 155 8.0 13.0 0.00 0.00 0.00 63 1005.7
20260509232023 91 139 8.0 13.0 0.00 0.00 0.00 64 1005.7
20260509231519 92 165 7.0 13.0 0.00 0.00 0.00 64 1005.7
20260509231243 92 169 6.0 11.0 0.00 0.00 0.00 64 1005.6
20260509230519 92 164 4.0 11.0 0.00 0.00 0.00 64 1005.6
20260509230017 92 174 3.0 9.0 0.00 0.00 0.00 64 1005.6
20260509225511 92 151 4.0 9.0 0.00 0.00 0.00 64 1005.6
20260509225005 92 169 4.0 9.0 0.00 0.00 0.00 65 1005.6
20260509224714 92 90 3.0 9.0 0.00 0.00 0.00 65 1005.6
20260509223949 92 151 2.0 8.0 0.00 0.00 0.00 66 1005.6
20260509223450 92 136 3.0 7.0 0.00 0.00 0.00 66 1005.6
20260509222949 92 210 3.0 7.0 0.00 0.00 0.00 66 1005.7
20260509222718 92 148 2.0 5.0 0.00 0.00 0.00 67 1005.7
20260509221953 92 139 2.0 5.0 0.00 0.00 0.00 67 1005.7
20260509221454 92 140 2.0 5.0 0.00 0.00 0.00 67 1006.0
20260509220949 92 185 3.0 5.0 0.00 0.00 0.00 68 1006.0
20260509220451 92 206 3.0 5.0 0.00 0.00 0.00 68 1006.0
20260509215949 91 201 3.0 5.0 0.00 0.00 0.00 68 1006.1
20260509215454 91 206 2.0 3.0 0.00 0.00 0.00 69 1006.1
20260509214950 91 226 2.0 5.0 0.00 0.00 0.00 69 1006.1
20260509214713 91 230 3.0 5.0 0.00 0.00 0.00 69 1006.1
20260509213948 91 240 3.0 5.0 0.00 0.00 0.00 70 1006.1
20260509213447 91 210 3.0 5.0 0.00 0.00 0.00 70 1006.1
20260509212949 91 214 2.0 4.0 0.00 0.00 0.00 70 1006.4
20260509212448 91 220 1.0 3.0 0.00 0.00 0.00 71 1006.4
20260509212209 91 109 1.0 5.0 0.00 0.00 0.00 71 1006.4
20260509211448 91 181 1.0 5.0 0.00 0.00 0.00 72 1006.6
20260509210936 91 180 2.0 6.0 0.00 0.00 0.00 72 1006.6
20260509210423 90 210 4.0 6.0 0.00 0.00 0.00 73 1006.6
20260509205908 90 205 4.0 6.0 0.00 0.00 0.00 73 1006.6
20260509205356 90 206 5.0 8.0 0.00 0.00 0.00 74 1006.6
20260509204842 90 211 4.0 8.0 0.00 0.00 0.00 74 1006.6
20260509204334 90 166 3.0 6.0 0.00 0.00 0.00 75 1006.7
20260509203824 89 163 3.0 6.0 0.00 0.00 0.00 75 1006.7
20260509203314 89 209 4.0 6.0 0.00 0.00 0.00 76 1006.7
20260509202809 89 207 4.0 6.0 0.00 0.00 0.00 77 1006.9
20260509202306 89 213 4.0 6.0 0.00 0.00 0.00 77 1006.9
20260509201802 89 212 4.0 7.0 0.00 0.00 0.00 77 1006.9
20260509201237 88 216 4.0 7.0 0.00 0.00 0.00 78 1007.1
20260509200732 88 220 3.0 5.0 0.00 0.00 0.00 78 1007.1
20260509200456 88 216 3.0 6.0 0.00 0.00 0.00 78 1007.1
20260509195712 88 250 3.0 6.0 0.00 0.00 0.00 79 1007.2
20260509195205 88 296 2.0 5.0 0.00 0.00 0.00 79 1007.2
20260509194656 88 90 1.0 4.0 0.00 0.00 0.00 80 1007.2
20260509194151 87 101 2.0 5.0 0.00 0.00 0.00 80 1007.4
20260509193640 87 178 2.0 5.0 0.00 0.00 0.00 81 1007.4